KA3BQE-13 Weather Reports


time (UTC)temp
C
wind
direction
speed
KPH
gust
KPH
rain 1hr
cm
rain 24hr
cm
rain mn
cm
humidity
%
barometer
mb
20260906004244 26 11 3.2 11.3 0.00 0.00 0.00 86 1015.9
20260906003739 26 349 4.8 14.5 0.00 0.00 0.00 85 1015.8
20260906003235 26 339 6.4 8.0 0.00 0.00 0.00 85 1015.8
20260906002734 26 344 3.2 9.7 0.00 0.00 0.00 85 1015.7
20260906002229 27 328 0.0 6.4 0.00 0.00 0.00 84 1015.6
20260906001725 27 331 4.8 12.9 0.00 0.00 0.00 83 1015.6
20260906001220 27 325 4.8 11.3 0.00 0.00 0.00 83 1015.5
20260906000715 27 297 4.8 9.7 0.00 0.00 0.00 82 1015.5
20260906000212 28 327 1.6 8.0 0.00 0.00 0.00 81 1015.2
20260905235709 28 309 3.2 6.4 0.00 0.00 0.00 81 1015.5
20260905235204 28 13 4.8 8.0 0.00 0.00 0.00 80 1015.2
20260905234700 28 313 1.6 6.4 0.00 0.00 0.00 80 1015.3
20260905234155 28 343 6.4 8.0 0.00 0.00 0.00 79 1015.3
20260905233650 29 330 0.0 8.0 0.00 0.00 0.00 78 1015.2
20260905233149 30 350 3.2 9.7 0.00 0.00 0.00 77 1015.5
20260905232645 30 350 4.8 8.0 0.00 0.00 0.00 76 1015.3
20260905232140 30 344 6.4 11.3 0.00 0.00 0.00 75 1015.4
20260905231635 30 10 3.2 12.9 0.00 0.00 0.00 77 1015.1
20260905231131 30 346 8.0 9.7 0.00 0.00 0.00 77 1015.2
20260905230627 30 346 8.0 12.9 0.00 0.00 0.00 76 1015.1
20260905230125 30 301 1.6 8.0 0.00 0.00 0.00 75 1015.1
20260905225618 30 294 3.2 6.4 0.00 0.00 0.00 74 1015.1
20260905225113 30 307 8.0 9.7 0.00 0.00 0.00 73 1015.0
20260905224608 30 304 8.0 9.7 0.00 0.00 0.00 73 1014.8
20260905224107 31 0 3.2 8.0 0.00 0.00 0.00 74 1015.1
20260905223605 31 339 1.6 14.5 0.00 0.00 0.00 73 1015.3
20260905223101 31 33 3.2 8.0 0.00 0.00 0.00 74 1015.2
20260905222601 31 314 3.2 14.5 0.00 0.00 0.00 72 1015.1
20260905222056 31 350 8.0 14.5 0.00 0.00 0.00 72 1015.0
20260905221552 31 251 3.2 16.1 0.00 0.00 0.00 72 1015.3
20260905221048 31 316 9.7 11.3 0.00 0.00 0.00 71 1015.0
20260905220543 31 334 4.8 11.3 0.00 0.00 0.00 73 1015.0
20260905220040 31 310 4.8 11.3 0.00 0.00 0.00 72 1015.1
20260905215539 31 332 4.8 9.7 0.00 0.00 0.00 73 1015.2
20260905215035 31 327 9.7 14.5 0.00 0.00 0.00 71 1014.9
20260905214531 31 167 1.6 11.3 0.00 0.00 0.00 72 1015.0
20260905214026 31 342 8.0 14.5 0.00 0.00 0.00 71 1014.7
20260905213521 31 303 6.4 6.4 0.00 0.00 0.00 73 1014.8
20260905213017 32 304 3.2 11.3 0.00 0.00 0.00 71 1015.0
20260905212511 32 341 4.8 8.0 0.00 0.00 0.00 71 1014.9
20260905212010 31 335 3.2 9.7 0.00 0.00 0.00 72 1015.0
20260905211506 32 347 3.2 12.9 0.00 0.00 0.00 71 1015.0
20260905211002 32 328 8.0 14.5 0.00 0.00 0.00 70 1015.0
20260905210457 32 327 8.0 8.0 0.00 0.00 0.00 70 1015.1
20260905205956 31 297 3.2 8.0 0.00 0.00 0.00 73 1015.3
20260905205451 32 332 3.2 11.3 0.00 0.00 0.00 72 1015.2
20260905204950 32 6 4.8 9.7 0.00 0.00 0.00 69 1015.2
20260905203945 32 351 6.4 8.0 0.00 0.00 0.00 69 1015.3
20260905203441 33 348 6.4 12.9 0.00 0.00 0.00 66 1015.2
20260905202936 33 44 6.4 6.4 0.00 0.00 0.00 68 1015.2
20260905202431 33 329 3.2 4.8 0.00 0.00 0.00 68 1015.3
20260905201927 32 329 6.4 12.9 0.00 0.00 0.00 68 1015.0
20260905201422 32 343 3.2 14.5 0.00 0.00 0.00 69 1015.1
20260905200921 34 320 8.0 8.0 0.00 0.00 0.00 69 1015.2
20260905200418 33 269 1.6 4.8 0.00 0.00 0.00 69 1015.3
20260905195915 32 326 3.2 6.4 0.00 0.00 0.00 69 1015.4
20260905195411 32 345 3.2 8.0 0.00 0.00 0.00 70 1015.5
20260905194907 33 308 3.2 9.7 0.00 0.00 0.00 72 1015.4
20260905194405 33 310 3.2 6.4 0.00 0.00 0.00 69 1015.2
20260905193900 33 317 4.8 6.4 0.00 0.00 0.00 69 1015.3
20260905193355 32 342 8.0 9.7 0.00 0.00 0.00 71 1015.3
20260905192850 32 329 3.2 6.4 0.00 0.00 0.00 72 1015.3
20260905192346 32 330 4.8 12.9 0.00 0.00 0.00 72 1015.5
20260905191846 33 345 4.8 12.9 0.00 0.00 0.00 67 1015.6
20260905191345 33 328 9.7 9.7 0.00 0.00 0.00 67 1015.5
20260905190843 33 323 3.2 9.7 0.00 0.00 0.00 70 1015.7
20260905190337 33 6 4.8 6.4 0.00 0.00 0.00 69 1015.6
20260905185835 33 338 3.2 6.4 0.00 0.00 0.00 72 1015.4
20260905185331 32 305 3.2 6.4 0.00 0.00 0.00 72 1015.7
20260905184829 34 304 3.2 4.8 0.00 0.00 0.00 68 1015.7
20260905184330 34 288 0.0 4.8 0.00 0.00 0.00 67 1015.9
20260905183828 33 5 3.2 9.7 0.00 0.00 0.00 69 1016.0
20260905183324 32 332 6.4 8.0 0.00 0.00 0.00 71 1015.7
20260905182824 33 338 4.8 9.7 0.00 0.00 0.00 70 1015.8
20260905182323 33 346 4.8 8.0 0.00 0.00 0.00 67 1015.9
20260905181819 34 354 4.8 9.7 0.00 0.00 0.00 68 1015.8
20260905181313 35 340 9.7 9.7 0.00 0.00 0.00 65 1016.1
20260905180812 35 315 3.2 8.0 0.00 0.00 0.00 66 1016.0
20260905180307 34 1 4.8 8.0 0.00 0.00 0.00 64 1016.0
20260905175803 35 302 4.8 9.7 0.00 0.00 0.00 67 1016.0
20260905175257 34 332 3.2 4.8 0.00 0.00 0.00 64 1016.1
20260905174752 33 244 3.2 9.7 0.00 0.00 0.00 68 1016.2
20260905174248 33 341 6.4 9.7 0.00 0.00 0.00 66 1016.1
20260905173744 33 331 9.7 17.7 0.00 0.00 0.00 67 1016.2
20260905173239 34 269 0.0 6.4 0.00 0.00 0.00 68 1016.2
20260905172733 34 320 4.8 8.0 0.00 0.00 0.00 67 1016.3
20260905172232 34 321 9.7 11.3 0.00 0.00 0.00 66 1016.2
20260905171729 33 284 1.6 4.8 0.00 0.00 0.00 68 1016.2
20260905171224 35 344 4.8 8.0 0.00 0.00 0.00 64 1016.1
20260905170716 35 309 6.4 8.0 0.00 0.00 0.00 63 1016.2
20260905170215 35 257 3.2 4.8 0.00 0.00 0.00 65 1016.4
20260905165710 34 0 4.8 6.4 0.00 0.00 0.00 63 1016.2
20260905165205 34 344 9.7 11.3 0.00 0.00 0.00 65 1016.3
20260905164659 34 313 3.2 6.4 0.00 0.00 0.00 64 1016.4
20260905164159 35 310 3.2 6.4 0.00 0.00 0.00 65 1016.3
20260905163655 34 257 3.2 4.8 0.00 0.00 0.00 64 1016.7
20260905163151 34 359 9.7 9.7 0.00 0.00 0.00 62 1016.3
20260905162647 33 333 3.2 9.7 0.00 0.00 0.00 65 1016.3
20260905162147 33 261 4.8 4.8 0.00 0.00 0.00 65 1016.3
20260905161647 33 250 1.6 6.4 0.00 0.00 0.00 64 1016.3
20260905161144 34 335 3.2 4.8 0.00 0.00 0.00 65 1016.5
20260905160639 33 238 3.2 6.4 0.00 0.00 0.00 64 1016.4
20260905160132 35 233 3.2 3.2 0.00 0.00 0.00 62 1016.3
20260905155627 34 339 1.6 4.8 0.00 0.00 0.00 64 1016.2
20260905155125 34 251 3.2 4.8 0.00 0.00 0.00 64 1016.2
20260905154620 33 246 3.2 9.7 0.00 0.00 0.00 64 1016.2
20260905154116 33 316 3.2 6.4 0.00 0.00 0.00 66 1016.2
20260905153612 33 310 4.8 9.7 0.00 0.00 0.00 64 1016.4
20260905153107 33 289 3.2 8.0 0.00 0.00 0.00 68 1016.1
20260905152602 33 255 1.6 8.0 0.00 0.00 0.00 68 1016.2
20260905152056 33 249 0.0 3.2 0.00 0.00 0.00 67 1016.3
20260905151551 33 239 6.4 8.0 0.00 0.00 0.00 66 1016.2
20260905151047 32 234 6.4 9.7 0.00 0.00 0.00 68 1016.2
20260905150542 32 251 4.8 9.7 0.00 0.00 0.00 70 1016.4
20260905150040 32 230 8.0 11.3 0.00 0.00 0.00 69 1016.1
20260905145533 32 213 1.6 4.8 0.00 0.00 0.00 71 1016.2
20260905145033 31 221 0.0 4.8 0.00 0.00 0.00 75 1016.1
20260905144528 31 280 3.2 6.4 0.00 0.00 0.00 74 1016.1
20260905144027 31 233 4.8 4.8 0.00 0.00 0.00 75 1015.9
20260905143526 31 228 4.8 6.4 0.00 0.00 0.00 73 1015.9
20260905143021 31 275 3.2 6.4 0.00 0.00 0.00 76 1015.9
20260905142520 30 240 3.2 6.4 0.00 0.00 0.00 77 1015.9
20260905142015 30 209 4.8 8.0 0.00 0.00 0.00 77 1016.0
20260905141515 30 240 3.2 4.8 0.00 0.00 0.00 79 1016.0
20260905141012 30 232 4.8 6.4 0.00 0.00 0.00 79 1015.9
20260905140506 29 238 3.2 6.4 0.00 0.00 0.00 80 1016.2
20260905140005 29 235 3.2 6.4 0.00 0.00 0.00 81 1016.0
20260905135501 28 237 4.8 4.8 0.00 0.00 0.00 82 1016.1
20260905134956 28 240 4.8 6.4 0.00 0.00 0.00 83 1016.1
20260905134455 28 237 4.8 4.8 0.00 0.00 0.00 85 1016.0
20260905133954 27 242 3.2 6.4 0.00 0.00 0.00 85 1016.3
20260905133450 28 253 3.2 4.8 0.00 0.00 0.00 84 1016.2
20260905132943 27 227 4.8 6.4 0.00 0.00 0.00 84 1016.0
20260905132438 27 233 4.8 6.4 0.00 0.00 0.00 85 1015.9
20260905131934 27 257 3.2 6.4 0.00 0.00 0.00 86 1016.1
20260905131430 27 234 6.4 8.0 0.00 0.00 0.00 85 1015.8
20260905130930 26 255 3.2 6.4 0.00 0.00 0.00 88 1016.1
20260905130429 26 239 3.2 6.4 0.00 0.00 0.00 88 1015.8
20260905125929 26 241 4.8 4.8 0.00 0.00 0.00 90 1015.7
20260905125424 26 249 6.4 6.4 0.00 0.00 0.00 90 1016.0
20260905124919 26 231 3.2 6.4 0.00 0.00 0.00 91 1015.9
20260905124416 26 265 1.6 4.8 0.00 0.00 0.00 90 1015.9
20260905123916 25 245 3.2 4.8 0.00 0.00 0.00 91 1015.7
20260905123413 25 285 3.2 6.4 0.00 0.00 0.00 92 1015.7
20260905122908 25 239 3.2 4.8 0.00 0.00 0.00 92 1015.6
20260905122407 25 243 3.2 4.8 0.00 0.00 0.00 93 1015.5
20260905121903 24 239 3.2 4.8 0.00 0.00 0.00 95 1015.6
20260905121358 24 265 3.2 8.0 0.00 0.00 0.00 97 1015.5
20260905120858 23 241 3.2 3.2 0.00 0.00 0.00 99 1015.4
20260905120357 23 268 1.6 3.2 0.00 0.00 0.00 99 1015.5
20260905115853 22 309 0.0 1.6 0.00 0.00 0.00 99 1015.3
20260905115352 22 317 0.0 1.6 0.00 0.00 0.00 99 1015.3
20260905114847 22 30 0.0 1.6 0.00 0.00 0.00 99 1015.2
20260905114341 22 325 1.6 3.2 0.00 0.00 0.00 99 1015.3
20260905113839 22 297 0.0 1.6 0.00 0.00 0.00 99 1015.2
20260905113335 22 344 0.0 1.6 0.00 0.00 0.00 99 1015.1
20260905112830 22 296 0.0 1.6 0.00 0.00 0.00 99 1015.2
20260905112325 22 321 0.0 3.2 0.00 0.00 0.00 99 1015.2
20260905111820 22 335 1.6 1.6 0.00 0.00 0.00 99 1015.2
20260905111315 22 326 1.6 1.6 0.00 0.00 0.00 99 1015.3
20260905110815 22 274 0.0 3.2 0.00 0.00 0.00 99 1015.3
20260905110314 22 329 1.6 3.2 0.00 0.00 0.00 99 1015.0
20260905105810 22 283 0.0 3.2 0.00 0.00 0.00 99 1014.9
20260905105308 22 347 0.0 1.6 0.00 0.00 0.00 99 1015.3
20260905104803 22 326 1.6 1.6 0.00 0.00 0.00 99 1015.2
20260905104300 22 351 1.6 1.6 0.00 0.00 0.00 99 1015.2
20260905103759 22 298 0.0 1.6 0.00 0.00 0.00 99 1015.2
20260905103255 23 305 0.0 1.6 0.00 0.00 0.00 99 1015.2
20260905102750 23 258 0.0 1.6 0.00 0.00 0.00 99 1015.2
20260905102247 23 281 0.0 3.2 0.00 0.00 0.00 99 1015.3
20260905101746 23 348 3.2 3.2 0.00 0.00 0.00 99 1015.3
20260905101245 23 341 3.2 3.2 0.00 0.00 0.00 99 1015.1
20260905100740 23 98 0.0 1.6 0.00 0.00 0.00 99 1015.3
20260905100236 23 333 0.0 3.2 0.00 0.00 0.00 99 1015.1
20260905095729 23 342 3.2 4.8 0.00 0.00 0.00 99 1015.3
20260905095229 23 254 0.0 1.6 0.00 0.00 0.00 99 1015.1
20260905094724 23 315 0.0 1.6 0.00 0.00 0.00 99 1015.4
20260905094219 23 324 0.0 3.2 0.00 0.00 0.00 99 1015.2
20260905093719 23 14 1.6 3.2 0.00 0.00 0.00 99 1015.3
20260905093215 23 325 0.0 3.2 0.00 0.00 0.00 99 1015.2
20260905092710 23 312 0.0 3.2 0.00 0.00 0.00 99 1015.3
20260905092206 23 336 1.6 3.2 0.00 0.00 0.00 99 1015.4
20260905091700 23 315 0.0 3.2 0.00 0.00 0.00 99 1015.4
20260905091200 23 309 1.6 3.2 0.00 0.00 0.00 99 1015.2
20260905090659 23 305 0.0 3.2 0.00 0.00 0.00 99 1015.2
20260905090155 23 325 1.6 3.2 0.00 0.00 0.00 99 1015.2
20260905085653 23 330 1.6 3.2 0.00 0.00 0.00 99 1015.1
20260905085148 23 317 0.0 3.2 0.00 0.00 0.00 99 1015.3
20260905084643 23 302 0.0 3.2 0.00 0.00 0.00 99 1015.3
20260905084138 22 323 0.0 3.2 0.00 0.00 0.00 99 1015.4
20260905083638 23 332 3.2 3.2 0.00 0.00 0.00 99 1015.1
20260905083134 23 333 0.0 3.2 0.00 0.00 0.00 99 1015.3
20260905082630 22 326 0.0 1.6 0.00 0.00 0.00 99 1015.3
20260905082126 23 329 3.2 3.2 0.00 0.00 0.00 99 1015.4
20260905081620 23 313 1.6 3.2 0.00 0.00 0.00 99 1015.3
20260905081114 23 301 1.6 3.2 0.00 0.00 0.00 99 1015.2
20260905080609 23 273 3.2 3.2 0.00 0.00 0.00 99 1015.3
20260905080109 23 312 1.6 3.2 0.00 0.00 0.00 99 1015.1
20260905075608 23 308 1.6 3.2 0.00 0.00 0.00 99 1015.2
20260905075102 23 321 3.2 3.2 0.00 0.00 0.00 99 1015.2
20260905074602 23 281 0.0 1.6 0.00 0.00 0.00 99 1015.6
20260905074057 23 330 1.6 3.2 0.00 0.00 0.00 99 1015.4
20260905073553 23 336 1.6 3.2 0.00 0.00 0.00 99 1015.3
20260905073048 23 321 1.6 3.2 0.00 0.00 0.00 99 1015.4
20260905072547 23 341 1.6 3.2 0.00 0.00 0.00 99 1015.5
20260905072043 23 284 0.0 3.2 0.00 0.00 0.00 99 1015.5
20260905071540 23 310 1.6 3.2 0.00 0.00 0.00 99 1015.3
20260905071034 23 306 0.0 3.2 0.00 0.00 0.00 99 1015.6
20260905070530 23 277 1.6 3.2 0.00 0.00 0.00 99 1015.7
20260905070026 23 311 3.2 3.2 0.00 0.00 0.00 99 1015.7
20260905065523 23 325 0.0 3.2 0.00 0.00 0.00 99 1015.6
20260905065019 23 308 0.0 3.2 0.00 0.00 0.00 99 1015.6
20260905064519 23 313 1.6 3.2 0.00 0.00 0.00 99 1015.6
20260905064014 23 323 0.0 3.2 0.00 0.00 0.00 99 1015.4
20260905063513 23 30 0.0 3.2 0.00 0.00 0.00 99 1015.5
20260905063010 23 293 0.0 3.2 0.00 0.00 0.00 99 1015.6
20260905062509 23 336 1.6 3.2 0.00 0.00 0.00 99 1015.6
20260905062004 23 323 0.0 3.2 0.00 0.00 0.00 99 1015.8
20260905061459 24 344 1.6 3.2 0.00 0.00 0.00 99 1015.8
20260905060958 24 309 0.0 3.2 0.00 0.00 0.00 99 1016.0
20260905060455 24 89 0.0 3.2 0.00 0.00 0.00 99 1015.8
20260905055954 24 331 3.2 3.2 0.00 0.00 0.00 99 1015.7
20260905055454 23 104 0.0 1.6 0.00 0.00 0.00 99 1015.9
20260905054949 23 0 3.2 4.8 0.00 0.00 0.00 99 1015.9
20260905054445 24 329 3.2 3.2 0.00 0.00 0.00 99 1015.7
20260905053944 24 343 0.0 3.2 0.00 0.00 0.00 99 1015.8
20260905053439 24 351 1.6 1.6 0.00 0.00 0.00 99 1016.0
20260905052935 24 331 1.6 3.2 0.00 0.00 0.00 99 1015.8
20260905052434 23 41 0.0 3.2 0.00 0.00 0.00 99 1015.9
20260905051934 23 334 1.6 3.2 0.00 0.00 0.00 99 1015.7
20260905051424 24 334 0.0 3.2 0.00 0.00 0.00 99 1015.7
20260905050922 24 29 0.0 1.6 0.00 0.00 0.00 99 1015.6
20260905050417 24 333 0.0 3.2 0.00 0.00 0.00 99 1015.9
20260905045912 24 344 3.2 3.2 0.00 0.00 0.00 99 1015.8
20260905045407 24 336 1.6 1.6 0.00 0.00 0.00 98 1015.8
20260905044903 23 282 0.0 1.6 0.00 0.00 0.00 98 1015.8
20260905044357 24 327 0.0 1.6 0.00 0.00 0.00 98 1015.8
20260905043856 24 332 1.6 3.2 0.00 0.00 0.00 98 1015.9
20260905043351 24 347 0.0 1.6 0.00 0.00 0.00 98 1015.8
20260905042846 24 69 0.0 1.6 0.00 0.00 0.00 98 1015.9
20260905042346 24 344 1.6 3.2 0.00 0.00 0.00 98 1015.7
20260905041841 24 353 0.0 3.2 0.00 0.00 0.00 98 1015.8
20260905041337 24 342 3.2 3.2 0.00 0.00 0.00 98 1015.6
20260905040832 24 357 0.0 3.2 0.00 0.00 0.00 97 1015.8
20260905040330 24 328 3.2 3.2 0.00 0.00 0.00 97 1015.7
20260905035825 24 82 1.6 1.6 0.00 0.00 0.00 97 1016.0
20260905035320 24 312 0.0 3.2 0.00 0.00 0.00 97 1015.5
20260905034817 24 340 1.6 3.2 0.00 0.00 0.00 97 1015.9
20260905034312 25 331 1.6 3.2 0.00 0.00 0.00 96 1015.6
20260905033810 25 322 0.0 1.6 0.00 0.00 0.00 96 1015.7
20260905033306 24 76 0.0 1.6 0.00 0.00 0.00 96 1015.9
20260905032800 25 303 0.0 3.2 0.00 0.00 0.00 96 1015.8
20260905032256 25 333 3.2 3.2 0.00 0.00 0.00 96 1015.9
20260905031750 25 336 3.2 3.2 0.00 0.00 0.00 95 1016.0
20260905031246 25 352 0.0 3.2 0.00 0.00 0.00 96 1015.9
20260905030741 25 342 1.6 3.2 0.00 0.00 0.00 96 1015.9
20260905030236 25 25 0.0 1.6 0.00 0.00 0.00 96 1015.9
20260905025731 25 295 1.6 3.2 0.00 0.00 0.00 96 1015.8
20260905025227 25 309 3.2 3.2 0.00 0.00 0.00 95 1015.9
20260905024722 25 302 0.0 3.2 0.00 0.00 0.00 95 1015.8
20260905024218 25 343 0.0 1.6 0.00 0.00 0.00 95 1016.0
20260905023713 25 10 0.0 1.6 0.00 0.00 0.00 95 1016.1
20260905023213 25 335 1.6 3.2 0.00 0.00 0.00 95 1015.9
20260905022712 25 325 1.6 3.2 0.00 0.00 0.00 95 1015.7
20260905022208 25 336 1.6 1.6 0.00 0.00 0.00 95 1015.7
20260905021706 25 309 0.0 0.0 0.00 0.00 0.00 96 1015.8
20260905021202 25 328 1.6 3.2 0.00 0.00 0.00 96 1015.6
20260905020657 25 337 3.2 3.2 0.00 0.00 0.00 95 1015.5
20260905020152 25 341 1.6 3.2 0.00 0.00 0.00 94 1015.4
20260905015650 26 309 0.0 1.6 0.00 0.00 0.00 94 1015.4
20260905015145 26 339 1.6 3.2 0.00 0.00 0.00 94 1015.4
20260905014638 26 326 3.2 3.2 0.00 0.00 0.00 94 1015.2
20260905014134 26 340 1.6 1.6 0.00 0.00 0.00 94 1015.4
20260905013631 26 340 1.6 3.2 0.00 0.00 0.00 94 1015.1
20260905013127 26 327 3.2 3.2 0.00 0.00 0.00 93 1015.2
20260905012626 26 55 0.0 0.0 0.00 0.00 0.00 93 1015.1
20260905012123 26 354 1.6 3.2 0.00 0.00 0.00 94 1015.3
20260905011619 26 8 0.0 1.6 0.00 0.00 0.00 95 1015.2
20260905011115 26 346 1.6 1.6 0.00 0.00 0.00 94 1015.1
20260905010614 26 353 1.6 3.2 0.00 0.00 0.00 94 1015.2
20260905010110 26 356 3.2 3.2 0.00 0.00 0.00 93 1015.1
20260905005606 26 352 0.0 0.0 0.00 0.00 0.00 93 1015.1
20260905005101 26 355 1.6 1.6 0.00 0.00 0.00 93 1015.1
20260905004556 26 1 3.2 3.2 0.00 0.00 0.00 93 1015.0